Starlink 11180

operational
NORAD ID: 60185 Int'l Des: 2024-124 Owner: SPXS Country: US Constellation: starlink
LEOCIRCULAR

Über Starlink 11180

Beschreibung wird geladen...

Live-Position

3D-Globus wird geladen...

Nächste Überflüge

Höhenverlauf

Altitude vs Time

uPlot chart will show altitude changes over time

Zweizeiliger Elementsatz

1 60185U 24124C 25353.82867182 -.00000811 00000-0 -18378-5 0 9997
2 60185 53.1592 194.7495 0000879 92.0798 268.0320 15.69705612 83997
Epoch: 19. Dez. 2025 • Age: 5 hours

Aktueller Status

Höhe 360.7 km
Geschwindigkeit 7.70 km/s
Subsatellitenpunkt 26.99°N, 117.95°E
Startdatum 3. Juli 2024
Alter 1.4 years
Typ internet

Technische Details

Klassifizierung Payload
Masse 960.00 kg
Trockenmasse 910.00 kg
Gesamtmasse 960.00 kg
Länge 0.30 m
Durchmesser 4.10 m
Spannweite 29.00 m
Form Box + pan
Hersteller SPXS
Bus-Typ Starlink V2MD
Phasenstatus In Orbit
Besitzer/Staat SPXS/US

Große Konstellationen

Loading constellations...